Weather History for KCHS - October, 2013

Change the Weather History Date:

Saturday, October 12, 2013

  Actual Average Record
Temperature  
Mean Temperature 76 °F 68 °F  
Max Temperature 85 °F 78 °F 87 °F (1954)
Min Temperature 66 °F 58 °F 40 °F (1945)
Degree Days  
Heating Degree Days 0 1  
Month to date heating degree days 0 12  
Since 1 July heating degree days 0 15  
Cooling Degree Days 11 5  
Month to date cooling degree days 100 70  
Year to date cooling degree days 2328 2208  
Growing Degree Days 25 (Base 50)    
Moisture  
Dew Point 63 °F    
Average Humidity 69    
Maximum Humidity 87    
Minimum Humidity 51    
Precipitation  
Precipitation 0.00 in 0.12 in 2.10 in (1977)
Month to date precipitation 1.36 1.74  
Year to date precipitation 52.43 43.48  
Sea Level Pressure  
Sea Level Pressure 30.00 in    
Wind  
Wind Speed 2 mph (North)    
Max Wind Speed 8 mph    
Max Gust Speed 10 mph    
Visibility 10 miles    
Events      
T = Trace of Precipitation, MM = Missing Value Source: NWS Daily Summary

Daily Weather History Graph

Daily Weather History Graph

Search for Another Location

Airport or City:

Trip Planner

Search our weather history database for the weather conditions in past years. The results will help you decide how hot, cold, wet, or windy it might be!

Date:

Astronomy

Oct. 12, 2013 Rise Set
Actual Time 7:22 AM EDT 6:50 PM EDT
Civil Twilight 6:57 AM EDT 7:15 PM EDT
Nautical Twilight 6:28 AM EDT 7:43 PM EDT
Astronomical Twilight 6:00 AM EDT 8:12 PM EDT
Moon 2:40 PM EDT (10/12) 12:43 AM EDT (10/12)
Length of Visible Light 12h 17m
Length of Day
11h 28m
First Quarter, 58% of the Moon is Illuminated
Oct 12
First Quarter
Oct 18
Full
Oct 26
Last Quarter
Nov 3
New
Nov 10
First Quarter

Hourly Weather History & Observations

Time (EDT) Temp. Heat Index Dew Point Humidity Pressure Visibility Wind Dir Wind Speed Gust Speed Precip Events Conditions
12:56 AM 69.1 °F - 64.0 °F 84% 29.96 in 10.0 mi North 4.6 mph - N/A   Mostly Cloudy
1:56 AM 68.0 °F - 63.0 °F 84% 29.96 in 10.0 mi Calm Calm - N/A   Scattered Clouds
2:56 AM 66.9 °F - 63.0 °F 87% 29.94 in 10.0 mi Calm Calm - N/A   Scattered Clouds
3:56 AM 66.9 °F - 63.0 °F 87% 29.94 in 10.0 mi Calm Calm - N/A   Mostly Cloudy
4:56 AM 68.0 °F - 63.0 °F 84% 29.95 in 10.0 mi Calm Calm - N/A   Mostly Cloudy
5:56 AM 66.9 °F - 63.0 °F 87% 29.97 in 10.0 mi North 3.5 mph - N/A   Mostly Cloudy
6:56 AM 66.9 °F - 62.1 °F 84% 29.99 in 10.0 mi NNE 3.5 mph - N/A   Mostly Cloudy
7:56 AM 66.9 °F - 63.0 °F 87% 30.00 in 9.0 mi NNE 3.5 mph - N/A   Mostly Cloudy
8:56 AM 69.1 °F - 64.9 °F 87% 30.02 in 10.0 mi NE 5.8 mph - N/A   Mostly Cloudy
9:56 AM 73.0 °F - 64.0 °F 73% 30.03 in 10.0 mi ENE 5.8 mph - N/A   Mostly Cloudy
10:56 AM 77.0 °F - 64.0 °F 64% 30.03 in 10.0 mi North 5.8 mph - N/A   Partly Cloudy
11:56 AM 80.1 °F 81.2 °F 62.1 °F 54% 30.03 in 10.0 mi NNE 4.6 mph - N/A   Partly Cloudy
12:56 PM 82.0 °F 83.0 °F 62.1 °F 51% 30.01 in 10.0 mi Variable 3.5 mph - N/A   Scattered Clouds
1:56 PM 82.9 °F 83.7 °F 62.1 °F 49% 29.99 in 10.0 mi West 4.6 mph - N/A   Mostly Cloudy
2:56 PM 81.0 °F 81.7 °F 61.0 °F 50% 29.98 in 10.0 mi Calm Calm - N/A   Mostly Cloudy
3:56 PM 81.0 °F 81.9 °F 62.1 °F 52% 29.99 in 10.0 mi NNW 4.6 mph - N/A   Mostly Cloudy
4:56 PM 80.1 °F 81.2 °F 62.1 °F 54% 29.99 in 10.0 mi NNW 3.5 mph - N/A   Mostly Cloudy
5:56 PM 77.0 °F - 66.0 °F 69% 30.00 in 10.0 mi SSW 3.5 mph - N/A   Mostly Cloudy
6:56 PM 73.0 °F - 64.9 °F 76% 30.02 in 10.0 mi SSW 4.6 mph - N/A   Mostly Cloudy
7:56 PM 73.0 °F - 64.0 °F 73% 30.02 in 10.0 mi Calm Calm - N/A   Mostly Cloudy
8:56 PM 72.0 °F - 64.9 °F 78% 30.04 in 10.0 mi Calm Calm - N/A   Mostly Cloudy
9:56 PM 73.0 °F - 66.0 °F 79% 30.05 in 10.0 mi Calm Calm - N/A   Overcast
10:56 PM 72.0 °F - 66.0 °F 81% 30.05 in 10.0 mi Calm Calm - N/A   Mostly Cloudy
11:56 PM 71.1 °F - 66.9 °F 87% 30.05 in 10.0 mi Calm Calm - N/A   Mostly Cloudy